| time (UTC) | temp C | wind direction | speed KPH | gust KPH | rain 1hr cm | rain 24hr cm | rain mn cm | humidity % | barometer mb |
| 20260504050504 | 9 | 283 | 6.4 | 12.9 | 0.00 | 0.00 | 0.00 | 50 | 1013.5 |
| 20260504050004 | 9 | 238 | 3.2 | 9.7 | 0.00 | 0.00 | 0.00 | 50 | 1013.5 |
| 20260504045505 | 9 | 242 | 1.6 | 9.7 | 0.00 | 0.00 | 0.00 | 50 | 1013.5 |
| 20260504045002 | 8 | 236 | 4.8 | 8.0 | 0.00 | 0.00 | 0.00 | 50 | 1013.5 |
| 20260504044506 | 9 | 251 | 3.2 | 8.0 | 0.00 | 0.00 | 0.00 | 51 | 1013.6 |
| 20260504044005 | 9 | 245 | 1.6 | 8.0 | 0.00 | 0.00 | 0.00 | 50 | 1013.5 |
| 20260504043505 | 9 | 239 | 3.2 | 8.0 | 0.00 | 0.00 | 0.00 | 49 | 1013.5 |
| 20260504043003 | 8 | 211 | 1.6 | 8.0 | 0.00 | 0.00 | 0.00 | 50 | 1013.4 |
| 20260504042503 | 8 | 236 | 1.6 | 6.4 | 0.00 | 0.00 | 0.00 | 50 | 1013.5 |
| 20260504042003 | 8 | 244 | 1.6 | 4.8 | 0.00 | 0.00 | 0.00 | 50 | 1013.4 |
| 20260504041510 | 8 | 227 | 1.6 | 4.8 | 0.00 | 0.00 | 0.00 | 50 | 1013.4 |
| 20260504041003 | 8 | 235 | 1.6 | 4.8 | 0.00 | 0.00 | 0.00 | 50 | 1013.4 |
| 20260504040503 | 8 | 210 | 1.6 | 4.8 | 0.00 | 0.00 | 0.00 | 50 | 1013.3 |
| 20260504040008 | 8 | 234 | 1.6 | 4.8 | 0.00 | 0.00 | 0.00 | 50 | 1013.3 |
| 20260504035507 | 8 | 231 | 1.6 | 6.4 | 0.00 | 0.00 | 0.00 | 50 | 1013.3 |
| 20260504035003 | 8 | 240 | 1.6 | 6.4 | 0.00 | 0.00 | 0.00 | 50 | 1013.2 |
| 20260504034508 | 9 | 248 | 1.6 | 3.2 | 0.00 | 0.00 | 0.00 | 49 | 1013.3 |
| 20260504034002 | 9 | 262 | 0.0 | 4.8 | 0.00 | 0.00 | 0.00 | 49 | 1013.2 |
| 20260504033502 | 9 | 262 | 0.0 | 4.8 | 0.00 | 0.00 | 0.00 | 49 | 1013.3 |
| 20260504033009 | 9 | 240 | 1.6 | 4.8 | 0.00 | 0.00 | 0.00 | 48 | 1013.3 |
| 20260504032506 | 9 | 253 | 1.6 | 4.8 | 0.00 | 0.00 | 0.00 | 48 | 1013.3 |
| 20260504032008 | 9 | 248 | 1.6 | 4.8 | 0.00 | 0.00 | 0.00 | 48 | 1013.3 |
| 20260504031505 | 9 | 259 | 1.6 | 4.8 | 0.00 | 0.00 | 0.00 | 48 | 1013.2 |
| 20260504031003 | 9 | 259 | 1.6 | 4.8 | 0.00 | 0.00 | 0.00 | 48 | 1013.2 |
| 20260504030507 | 9 | 248 | 1.6 | 4.8 | 0.00 | 0.00 | 0.00 | 48 | 1013.2 |
| 20260504030009 | 10 | 230 | 0.0 | 4.8 | 0.00 | 0.00 | 0.00 | 47 | 1013.2 |
| 20260504025503 | 10 | 236 | 1.6 | 4.8 | 0.00 | 0.00 | 0.00 | 47 | 1013.3 |
| 20260504025003 | 10 | 252 | 1.6 | 4.8 | 0.00 | 0.00 | 0.00 | 46 | 1013.3 |
| 20260504024508 | 10 | 238 | 1.6 | 6.4 | 0.00 | 0.00 | 0.00 | 46 | 1013.2 |
| 20260504024007 | 10 | 250 | 1.6 | 6.4 | 0.00 | 0.00 | 0.00 | 46 | 1013.3 |
| 20260504023504 | 10 | 259 | 1.6 | 4.8 | 0.00 | 0.00 | 0.00 | 46 | 1013.3 |
| 20260504023012 | 10 | 217 | 0.0 | 6.4 | 0.00 | 0.00 | 0.00 | 46 | 1013.2 |
| 20260504022509 | 10 | 261 | 1.6 | 6.4 | 0.00 | 0.00 | 0.00 | 45 | 1013.2 |
| 20260504022004 | 10 | 219 | 1.6 | 4.8 | 0.00 | 0.00 | 0.00 | 45 | 1013.2 |
| 20260504021511 | 10 | 227 | 0.0 | 8.0 | 0.00 | 0.00 | 0.00 | 45 | 1013.2 |
| 20260504021004 | 10 | 223 | 1.6 | 8.0 | 0.00 | 0.00 | 0.00 | 44 | 1013.2 |
| 20260504020504 | 10 | 236 | 3.2 | 8.0 | 0.00 | 0.00 | 0.00 | 45 | 1013.2 |
| 20260504020006 | 10 | 238 | 3.2 | 6.4 | 0.00 | 0.00 | 0.00 | 44 | 1013.1 |
| 20260504015504 | 10 | 218 | 1.6 | 4.8 | 0.00 | 0.00 | 0.00 | 44 | 1013.1 |
| 20260504015006 | 10 | 203 | 1.6 | 6.4 | 0.00 | 0.00 | 0.00 | 44 | 1013.1 |
| 20260504014514 | 10 | 223 | 3.2 | 6.4 | 0.00 | 0.00 | 0.00 | 44 | 1013.1 |
| 20260504014003 | 10 | 256 | 3.2 | 6.4 | 0.00 | 0.00 | 0.00 | 44 | 1013.1 |
| 20260504013504 | 10 | 234 | 1.6 | 4.8 | 0.00 | 0.00 | 0.00 | 44 | 1013.1 |
| 20260504013018 | 10 | 234 | 1.6 | 4.8 | 0.00 | 0.00 | 0.00 | 43 | 1013.1 |
| 20260504012505 | 11 | 238 | 1.6 | 4.8 | 0.00 | 0.00 | 0.00 | 43 | 1013.0 |
| 20260504012005 | 11 | 198 | 1.6 | 6.4 | 0.00 | 0.00 | 0.00 | 43 | 1012.9 |
| 20260504011513 | 11 | 184 | 3.2 | 6.4 | 0.00 | 0.00 | 0.00 | 43 | 1012.8 |
| 20260504011004 | 11 | 223 | 1.6 | 6.4 | 0.00 | 0.00 | 0.00 | 42 | 1012.8 |
| 20260504010505 | 11 | 217 | 3.2 | 8.0 | 0.00 | 0.00 | 0.00 | 42 | 1012.7 |
| 20260504010014 | 11 | 251 | 3.2 | 8.0 | 0.00 | 0.00 | 0.00 | 42 | 1012.7 |
| 20260504005505 | 11 | 261 | 1.6 | 6.4 | 0.00 | 0.00 | 0.00 | 42 | 1012.7 |
| 20260504005004 | 11 | 240 | 3.2 | 8.0 | 0.00 | 0.00 | 0.00 | 41 | 1012.7 |
| 20260504004511 | 11 | 243 | 3.2 | 8.0 | 0.00 | 0.00 | 0.00 | 41 | 1012.6 |
| 20260504004008 | 11 | 219 | 3.2 | 6.4 | 0.00 | 0.00 | 0.00 | 41 | 1012.5 |
| 20260504003509 | 11 | 226 | 1.6 | 6.4 | 0.00 | 0.00 | 0.00 | 41 | 1012.5 |
| 20260504003016 | 11 | 222 | 3.2 | 8.0 | 0.00 | 0.00 | 0.00 | 40 | 1012.4 |
| 20260504002506 | 11 | 221 | 3.2 | 8.0 | 0.00 | 0.00 | 0.00 | 40 | 1012.4 |
| 20260504002007 | 11 | 225 | 1.6 | 6.4 | 0.00 | 0.00 | 0.00 | 40 | 1012.3 |
| 20260504001515 | 12 | 249 | 3.2 | 11.3 | 0.00 | 0.00 | 0.00 | 39 | 1012.3 |
| 20260504001005 | 12 | 243 | 3.2 | 9.7 | 0.00 | 0.00 | 0.00 | 39 | 1012.4 |
| 20260504000505 | 12 | 240 | 3.2 | 12.9 | 0.00 | 0.00 | 0.00 | 39 | 1012.4 |
| 20260504000044 | 12 | 277 | 4.8 | 16.1 | 0.00 | 0.00 | 0.00 | 38 | 1012.4 |
| 20260503235509 | 12 | 274 | 6.4 | 16.1 | 0.00 | 0.00 | 0.00 | 39 | 1012.3 |
| 20260503235004 | 12 | 276 | 6.4 | 19.3 | 0.00 | 0.00 | 0.00 | 38 | 1012.3 |
| 20260503234518 | 12 | 275 | 9.7 | 19.3 | 0.00 | 0.00 | 0.00 | 37 | 1012.2 |
| 20260503234004 | 12 | 273 | 4.8 | 14.5 | 0.00 | 0.00 | 0.00 | 38 | 1012.3 |
| 20260503233507 | 13 | 269 | 8.0 | 17.7 | 0.00 | 0.00 | 0.00 | 37 | 1012.2 |
| 20260503233012 | 13 | 209 | 6.4 | 17.7 | 0.00 | 0.00 | 0.00 | 37 | 1012.2 |
| 20260503232505 | 12 | 251 | 6.4 | 16.1 | 0.00 | 0.00 | 0.00 | 38 | 1012.1 |
| 20260503232005 | 12 | 283 | 9.7 | 17.7 | 0.00 | 0.00 | 0.00 | 38 | 1012.1 |
| 20260503231516 | 13 | 273 | 6.4 | 17.7 | 0.00 | 0.00 | 0.00 | 37 | 1012.2 |
| 20260503231008 | 13 | 267 | 9.7 | 16.1 | 0.00 | 0.00 | 0.00 | 37 | 1012.1 |
| 20260503230509 | 13 | 263 | 6.4 | 20.9 | 0.00 | 0.00 | 0.00 | 39 | 1012.1 |
| 20260503230018 | 13 | 272 | 8.0 | 20.9 | 0.00 | 0.00 | 0.00 | 38 | 1012.1 |
| 20260503225508 | 13 | 250 | 6.4 | 20.9 | 0.00 | 0.00 | 0.00 | 36 | 1012.1 |
| 20260503225009 | 13 | 293 | 12.9 | 24.1 | 0.00 | 0.00 | 0.00 | 36 | 1012.1 |
| 20260503224519 | 13 | 290 | 12.9 | 29.0 | 0.00 | 0.00 | 0.00 | 37 | 1012.1 |
| 20260503224006 | 13 | 267 | 9.7 | 29.0 | 0.00 | 0.00 | 0.00 | 37 | 1012.1 |
| 20260503223506 | 13 | 284 | 14.5 | 29.0 | 0.00 | 0.00 | 0.00 | 37 | 1012.1 |
| 20260503223019 | 13 | 271 | 14.5 | 29.0 | 0.00 | 0.00 | 0.00 | 38 | 1012.2 |
| 20260503222505 | 13 | 290 | 14.5 | 20.9 | 0.00 | 0.00 | 0.00 | 36 | 1012.2 |
| 20260503222005 | 13 | 282 | 12.9 | 20.9 | 0.00 | 0.00 | 0.00 | 36 | 1012.2 |
| 20260503221517 | 13 | 294 | 11.3 | 20.9 | 0.00 | 0.00 | 0.00 | 35 | 1012.2 |
| 20260503221007 | 13 | 265 | 8.0 | 24.1 | 0.00 | 0.00 | 0.00 | 35 | 1012.1 |
| 20260503220505 | 14 | 271 | 8.0 | 24.1 | 0.00 | 0.00 | 0.00 | 36 | 1012.1 |
| 20260503220018 | 13 | 254 | 11.3 | 24.1 | 0.00 | 0.00 | 0.00 | 1012.1 | |
| 20260503215512 | 13 | 268 | 14.5 | 30.6 | 0.00 | 0.00 | 0.00 | 35 | 1012.2 |
| 20260503215008 | 13 | 253 | 19.3 | 30.6 | 0.00 | 0.00 | 0.00 | 35 | 1012.2 |
| 20260503214523 | 13 | 268 | 14.5 | 25.7 | 0.00 | 0.00 | 0.00 | 36 | 1012.1 |
| 20260503214014 | 13 | 275 | 14.5 | 25.7 | 0.00 | 0.00 | 0.00 | 34 | 1012.0 |
| 20260503213516 | 13 | 273 | 14.5 | 22.5 | 0.00 | 0.00 | 0.00 | 35 | 1011.9 |
| 20260503213021 | 13 | 266 | 12.9 | 24.1 | 0.00 | 0.00 | 0.00 | 35 | 1011.9 |
| 20260503212510 | 13 | 255 | 12.9 | 25.7 | 0.00 | 0.00 | 0.00 | 36 | 1012.0 |
| 20260503212012 | 13 | 281 | 11.3 | 29.0 | 0.00 | 0.00 | 0.00 | 36 | 1011.9 |
| 20260503211516 | 13 | 267 | 16.1 | 29.0 | 0.00 | 0.00 | 0.00 | 35 | 1011.8 |
| 20260503211007 | 13 | 283 | 6.4 | 17.7 | 0.00 | 0.00 | 0.00 | 37 | 1011.8 |
| 20260503210509 | 13 | 290 | 8.0 | 20.9 | 0.00 | 0.00 | 0.00 | 36 | 1011.9 |
| 20260503210021 | 13 | 234 | 9.7 | 24.1 | 0.00 | 0.00 | 0.00 | 35 | 1012.0 |
| 20260503205507 | 13 | 250 | 14.5 | 24.1 | 0.00 | 0.00 | 0.00 | 35 | 1012.0 |
| 20260503205010 | 13 | 259 | 14.5 | 27.4 | 0.00 | 0.00 | 0.00 | 35 | 1012.0 |
| 20260503204523 | 13 | 286 | 16.1 | 27.4 | 0.00 | 0.00 | 0.00 | 35 | 1011.9 |
| 20260503204011 | 13 | 293 | 16.1 | 24.1 | 0.00 | 0.00 | 0.00 | 36 | 1011.8 |
| 20260503203515 | 13 | 291 | 14.5 | 22.5 | 0.00 | 0.00 | 0.00 | 40 | 1012.0 |
| 20260503203038 | 13 | 293 | 8.0 | 19.3 | 0.00 | 0.00 | 0.00 | 1011.9 | |
| 20260503202506 | 12 | 300 | 9.7 | 22.5 | 0.00 | 0.00 | 0.00 | 37 | 1011.9 |
| 20260503202011 | 13 | 294 | 12.9 | 22.5 | 0.00 | 0.00 | 0.00 | 37 | 1012.0 |
| 20260503201512 | 13 | 246 | 8.0 | 24.1 | 0.00 | 0.00 | 0.00 | 37 | 1012.0 |
| 20260503201006 | 12 | 278 | 12.9 | 25.7 | 0.00 | 0.00 | 0.00 | 37 | 1012.2 |
| 20260503200509 | 13 | 271 | 14.5 | 25.7 | 0.00 | 0.00 | 0.00 | 34 | 1012.2 |
| 20260503200016 | 12 | 315 | 12.9 | 27.4 | 0.00 | 0.00 | 0.00 | 39 | 1012.2 |
| 20260503195507 | 13 | 279 | 14.5 | 27.4 | 0.00 | 0.00 | 0.00 | 38 | 1012.3 |
| 20260503195012 | 13 | 256 | 6.4 | 25.7 | 0.00 | 0.00 | 0.00 | 38 | 1012.4 |
| 20260503194504 | 13 | 240 | 16.1 | 25.7 | 0.00 | 0.00 | 0.00 | 35 | 1012.4 |
| 20260503194004 | 13 | 269 | 9.7 | 29.0 | 0.00 | 0.00 | 0.00 | 39 | 1012.5 |
| 20260503193505 | 13 | 294 | 17.7 | 32.2 | 0.00 | 0.00 | 0.00 | 37 | 1012.5 |
| 20260503193008 | 12 | 302 | 8.0 | 32.2 | 0.00 | 0.00 | 0.00 | 38 | 1012.4 |
| 20260503192504 | 12 | 284 | 12.9 | 20.9 | 0.00 | 0.00 | 0.00 | 36 | 1012.5 |
| 20260503192006 | 12 | 309 | 8.0 | 20.9 | 0.00 | 0.00 | 0.00 | 35 | 1012.5 |
| 20260503191510 | 13 | 275 | 9.7 | 25.7 | 0.00 | 0.00 | 0.00 | 37 | 1012.6 |
| 20260503191004 | 13 | 300 | 17.7 | 25.7 | 0.00 | 0.00 | 0.00 | 41 | 1012.7 |
| 20260503190507 | 12 | 274 | 11.3 | 22.5 | 0.00 | 0.00 | 0.00 | 38 | 1012.9 |
| 20260503190014 | 12 | 272 | 11.3 | 22.5 | 0.00 | 0.00 | 0.00 | 39 | 1012.8 |
| 20260503185507 | 13 | 237 | 11.3 | 25.7 | 0.00 | 0.00 | 0.00 | 37 | 1012.7 |
| 20260503185008 | 12 | 190 | 14.5 | 25.7 | 0.00 | 0.00 | 0.00 | 38 | 1012.9 |
| 20260503184522 | 12 | 293 | 12.9 | 27.4 | 0.00 | 0.00 | 0.00 | 37 | 1012.9 |
| 20260503184010 | 12 | 304 | 20.9 | 27.4 | 0.00 | 0.00 | 0.00 | 37 | 1013.0 |
| 20260503183513 | 13 | 294 | 11.3 | 27.4 | 0.00 | 0.00 | 0.00 | 37 | 1013.0 |
| 20260503183004 | 13 | 284 | 16.1 | 30.6 | 0.00 | 0.00 | 0.00 | 36 | 1013.0 |
| 20260503182503 | 12 | 325 | 14.5 | 30.6 | 0.00 | 0.00 | 0.00 | 39 | 1013.0 |
| 20260503182004 | 12 | 296 | 12.9 | 27.4 | 0.00 | 0.00 | 0.00 | 37 | 1013.0 |
| 20260503181509 | 12 | 309 | 12.9 | 32.2 | 0.00 | 0.00 | 0.00 | 37 | 1013.0 |
| 20260503181005 | 12 | 246 | 16.1 | 37.0 | 0.00 | 0.00 | 0.00 | 34 | 1013.0 |
| 20260503180505 | 13 | 271 | 20.9 | 37.0 | 0.00 | 0.00 | 0.00 | 33 | 1013.1 |
| 20260503180022 | 13 | 276 | 12.9 | 24.1 | 0.00 | 0.00 | 0.00 | 34 | 1012.9 |
| 20260503175504 | 12 | 296 | 11.3 | 24.1 | 0.00 | 0.00 | 0.00 | 35 | 1013.1 |
| 20260503175008 | 12 | 234 | 9.7 | 30.6 | 0.00 | 0.00 | 0.00 | 38 | 1013.1 |
| 20260503174520 | 12 | 347 | 8.0 | 30.6 | 0.00 | 0.00 | 0.00 | 38 | 1013.2 |
| 20260503174010 | 12 | 267 | 12.9 | 30.6 | 0.00 | 0.00 | 0.00 | 36 | 1013.3 |
| 20260503173506 | 12 | 311 | 6.4 | 24.1 | 0.00 | 0.00 | 0.00 | 36 | 1013.2 |
| 20260503173039 | 12 | 262 | 9.7 | 22.5 | 0.00 | 0.00 | 0.00 | 39 | 1013.3 |
| 20260503172510 | 11 | 304 | 8.0 | 22.5 | 0.00 | 0.00 | 0.00 | 39 | 1013.4 |
| 20260503172013 | 11 | 344 | 6.4 | 19.3 | 0.00 | 0.00 | 0.00 | 40 | 1013.5 |
| 20260503171504 | 11 | 243 | 9.7 | 19.3 | 0.00 | 0.00 | 0.00 | 42 | 1013.6 |
| 20260503171004 | 11 | 327 | 12.9 | 20.9 | 0.00 | 0.00 | 0.00 | 39 | 1013.7 |
| 20260503170503 | 11 | 263 | 12.9 | 32.2 | 0.00 | 0.00 | 0.00 | 38 | 1013.8 |
| 20260503151008 | 9 | 281 | 9.7 | 24.1 | 0.00 | 0.00 | 0.00 | 46 | 1014.9 |
| 20260503150509 | 8 | 346 | 12.9 | 25.7 | 0.00 | 0.00 | 0.00 | 45 | 1015.0 |
| 20260503131007 | 6 | 302 | 11.3 | 19.3 | 0.00 | 0.00 | 0.00 | 53 | 1015.5 |
| 20260503130508 | 6 | 323 | 9.7 | 17.7 | 0.00 | 0.00 | 0.00 | 53 | 1015.6 |
| 20260503110507 | 1 | 290 | 1.6 | 4.8 | 0.00 | 0.00 | 0.00 | 75 | 1015.2 |
| 20260503090503 | 2 | 296 | 0.0 | 4.8 | 0.00 | 0.00 | 0.00 | 72 | 1014.3 |
| 20260503081508 | 2 | 292 | 0.0 | 6.4 | 0.00 | 0.00 | 0.00 | 74 | 1014.0 |
| 20260503081003 | 2 | 331 | 1.6 | 4.8 | 0.00 | 0.00 | 0.00 | 74 | 1014.0 |
| 20260503080506 | 2 | 332 | 1.6 | 3.2 | 0.00 | 0.00 | 0.00 | 73 | 1014.0 |
| 20260503072510 | 2 | 323 | 0.0 | 4.8 | 0.00 | 0.00 | 0.00 | 72 | 1013.9 |
| 20260503072007 | 2 | 352 | 1.6 | 6.4 | 0.00 | 0.00 | 0.00 | 72 | 1013.9 |
| 20260503071524 | 2 | 298 | 1.6 | 6.4 | 0.00 | 0.00 | 0.00 | 72 | 1013.9 |
| 20260503071008 | 2 | 348 | 1.6 | 6.4 | 0.00 | 0.00 | 0.00 | 72 | 1013.9 |
| 20260503070511 | 2 | 302 | 1.6 | 6.4 | 0.00 | 0.00 | 0.00 | 72 | 1013.9 |
| 20260503055011 | 4 | 310 | 1.6 | 6.4 | 0.00 | 0.00 | 0.00 | 67 | 1014.2 |
| 20260503054510 | 4 | 327 | 1.6 | 6.4 | 0.00 | 0.00 | 0.00 | 67 | 1014.1 |
| 20260503054003 | 4 | 360 | 1.6 | 6.4 | 0.00 | 0.03 | 0.00 | 67 | 1014.2 |
| 20260503053507 | 4 | 321 | 0.0 | 6.4 | 0.00 | 0.03 | 0.00 | 66 | 1014.2 |
| 20260503053017 | 4 | 311 | 1.6 | 8.0 | 0.00 | 0.03 | 0.00 | 66 | 1014.2 |